Meeker, CO

5:15 AM MDT on July 21, 2017 (GMT -0600)
Meeker

Weather History for KEEO - November, 2011

Change the Weather History Date:

Friday, November 18, 2011

  Actual Average Record
Temperature  
Mean Temperature 46 °F 31 °F  
Max Temperature 53 °F 44 °F 66 °F (2008)
Min Temperature 39 °F 18 °F -14 °F (2000)
Degree Days  
Heating Degree Days 19 34  
Month to date heating degree days 547  
Since 1 July heating degree days 1491  
Cooling Degree Days 0 0  
Month to date cooling degree days 0  
Year to date cooling degree days 172  
Moisture  
Dew Point 19 °F    
Average Humidity 36    
Maximum Humidity 45    
Minimum Humidity 26    
Precipitation  
Precipitation 0.00 in 0.05 in 0.04 in (2003)
Month to date precipitation 0.97  
Year to date precipitation 14.45  
Sea Level Pressure  
Sea Level Pressure 29.54 in    
Wind  
Wind Speed 15 mph (SSW)    
Max Wind Speed 25 mph    
Max Gust Speed 43 mph    
Visibility 10 miles    
Events      
T = Trace of Precipitation, MM = Missing Value Source: NWS Daily Summary

Daily Weather History Graph

Daily Weather History Graph

Search for Another Location

Airport or City:

Trip Planner

Search our weather history database for the weather conditions in past years. The results will help you decide how hot, cold, wet, or windy it might be!

Date:

Astronomy

Nov. 18, 2011 Rise Set
Actual Time 7:00 AM MST 4:52 PM MST
Civil Twilight 6:30 AM MST 5:22 PM MST
Nautical Twilight 5:57 AM MST 5:55 PM MST
Astronomical Twilight 5:25 AM MST 6:27 PM MST
Moon No Moon Rise 12:40 PM MST (11/18)
Length of Visible Light 10h 51m
Length of Day
9h 52m
Waning Gibbous, 48% of the Moon is Illuminated
Nov 18
Waning Gibbous
Nov 24
New
Dec 2
First Quarter
Dec 10
Full
Dec 17
Last Quarter

Hourly Weather History & Observations

Time (MST) Temp. Windchill Dew Point Humidity Pressure Visibility Wind Dir Wind Speed Gust Speed Precip Events Conditions
12:53 AM 39.9 °F 33.9 °F 17.1 °F 40% 29.77 in 10.0 mi SW 9.2 mph - N/A   Mostly Cloudy
1:53 AM 39.9 °F 34.5 °F 18.0 °F 41% 29.73 in 10.0 mi NW 8.1 mph - N/A   Partly Cloudy
2:53 AM 39.0 °F 31.4 °F 19.0 °F 45% 29.72 in 10.0 mi WSW 12.7 mph 18.4 mph N/A   Clear
3:53 AM 39.9 °F 31.8 °F 19.0 °F 43% 29.68 in 10.0 mi SSW 15.0 mph 26.5 mph N/A   Clear
4:53 AM 39.9 °F 31.8 °F 19.0 °F 43% 29.68 in 10.0 mi SSW 15.0 mph 23.0 mph N/A   Clear
5:53 AM 39.9 °F 30.5 °F 19.0 °F 43% 29.68 in 10.0 mi SSW 19.6 mph 31.1 mph N/A   Clear
6:53 AM 39.9 °F 32.1 °F 19.0 °F 43% 29.67 in 10.0 mi SSW 13.8 mph 31.1 mph N/A   Clear
7:53 AM 41.0 °F 33.5 °F 19.0 °F 41% 29.69 in 10.0 mi SSW 13.8 mph 20.7 mph N/A   Clear
8:53 AM 45.0 °F 36.0 °F 19.0 °F 36% 29.66 in 10.0 mi SSW 25.3 mph 32.2 mph N/A   Clear
9:53 AM 48.0 °F - 19.0 °F 32% 29.62 in 10.0 mi SSW 23.0 mph 34.5 mph N/A   Clear
10:53 AM 50.0 °F - 19.0 °F 29% 29.58 in 10.0 mi SSW 23.0 mph 32.2 mph N/A   Clear
11:53 AM 52.0 °F - 19.0 °F 27% 29.53 in 10.0 mi SW 20.7 mph 28.8 mph N/A   Clear
12:53 PM 53.1 °F - 19.0 °F 26% 29.50 in 10.0 mi SSW 23.0 mph 33.4 mph N/A   Clear
1:53 PM 53.1 °F - 19.0 °F 26% 29.48 in 10.0 mi SSW 20.7 mph 36.8 mph N/A   Clear
2:53 PM 52.0 °F - 18.0 °F 26% 29.47 in 10.0 mi SSW 17.3 mph 25.3 mph N/A   Clear
3:53 PM 50.0 °F - 18.0 °F 28% 29.44 in 10.0 mi SSW 19.6 mph 29.9 mph N/A   Clear
4:53 PM 46.9 °F - 18.0 °F 32% 29.43 in 10.0 mi SSW 20.7 mph 31.1 mph N/A   Clear
5:53 PM 45.0 °F 38.9 °F 19.0 °F 36% 29.43 in 10.0 mi SW 12.7 mph 27.6 mph N/A   Clear
6:53 PM 45.0 °F 37.1 °F 18.0 °F 34% 29.42 in 10.0 mi SSW 19.6 mph 29.9 mph N/A   Clear
7:53 PM 44.1 °F 37.1 °F 19.0 °F 37% 29.41 in 10.0 mi SSW 15.0 mph 28.8 mph N/A   Clear
8:53 PM 43.0 °F 35.1 °F 19.9 °F 40% 29.39 in 10.0 mi SSW 17.3 mph 26.5 mph N/A   Clear
9:53 PM 44.1 °F 37.1 °F 21.0 °F 40% 29.37 in 10.0 mi SSW 15.0 mph 25.3 mph N/A   Clear
10:53 PM 45.0 °F 37.6 °F 21.0 °F 39% 29.35 in 10.0 mi SSW 17.3 mph 27.6 mph N/A   Partly Cloudy
11:53 PM 46.0 °F 38.0 °F 19.9 °F 35% 29.34 in 10.0 mi SSW 21.9 mph 42.6 mph N/A   Clear